Powrót do katalogu

CZ-4 DEB

AktywnySSO
NORAD 28067·DEBRIS·🇨🇳 China

Wystrzelony Oct 14, 1999 z Taiyuan Satellite Launch Center

Loading…

Następne Przeloty (najbliższe 24 godziny)

TLE

ŚwieżeSource: Space-Track

Epoka: Sep 12, 2026, 16:27 UTC

1 28067U 99057MX  26255.68566334  .00004083  00000-0  65244-3 0  9993
2 28067  98.4070 337.1188 0063036 174.3734 185.8194 14.71104367256521

Śledź CZ-4 DEB w czasie rzeczywistym z AllMySat

Download on the App Store